"Pseudo-MPEC" for CAP0281

Created 2024 May 16 10:22:09 UT using Find_Orb

Click here for an explanation of pseudo-MPECs

 
 Astrometry: 
     CAP0281* B2024 05 14DHkV#Tp`4d4B:WDv[O%xF5to#*3GIQI:-LIW3]u!y=;0;7EjqD65G03
     CAP0281  B2024 05 14Y0_6;L7d#`Xd3[AFpGr4\OS(@J0:9AyP6Kg(N2FanAaf7b8%$uUWG03
     CAP0281  B2024 05 14WO\79v*ZOZJT$6P7\k_#,%nntrm))$Xeoq;y,DZ0R\5Bf$1e[qjPG03
     CAP0281 1C2024 05 15.00014 16 06 32.03 +08 27 22.9    ~5F6M 20.0 VXNEOCP033
     CAP0281 1C2024 05 15.00048 16 06 32.00 +08 27 34.5    ~5F6M 20.3 VXNEOCP033
     CAP0281 1C2024 05 15.00081 16 06 31.98 +08 27 46.0    ~5F6M 20.2 VXNEOCP033
     CAP0281 KC2024 05 15eb$7U-@3e`(6U(vT-,RvO-)gC1M?tQV)^vq#6yml'DFCQ,u'[m)CK88
     CAP0281 KC2024 05 15Pp@*[mI/D%m\VAstrometryd9lc,^EP*B[7rbL?kIp;iQ\$`Z)SpK88
     CAP0281 KC2024 05 15_q/Rredacted;[jZFO\fNDlnjd__6vBw0*'?6K7,q-kMi1gWp1M4K88
     CAP0281 KC2024 05 15q3,a/)8?/CF(y7T6wJa^o4'Zjo7`ZeNQx[mad+MN'UMr/=I3$.(mK88
     CAP0281 KC2024 05 155]^TD??LJq-=XqI^DQ?Y7cv;Q!I3n8P+w*)p#Vttc8,[click;DYK88
     CAP0281 KC2024 05 15Fd3%UQp(Wso%fE0=):3,p-ZYyfnne(;O;@^Fv/NS\DXHCieM]x3SK88
     CAP0281 1C2024 05 15.06346 16 06 27.56 +09 03 30.9    ~5F6b 19.8 VXNEOCP033
     CAP0281 1C2024 05 15.06380 16 06 27.53 +09 03 42.8    ~5F6b 20.0 VXNEOCP033
     CAP0281 1C2024 05 15.06414 16 06 27.48 +09 03 54.2    ~5F6b 19.2 VXNEOCP033
     CAP0281 mC2024 05 15.13962616 06 50.100+09 48 28.10   ~5F47 18.85GVNEOCPI52
     CAP0281 mC2024 05 15.13996616 06 50.110+09 48 40.50   ~5F47 19.08GVNEOCPI52
     CAP0281 mC2024 05 15.14013816 06 50.120+09 48 46.40   ~5F47 20.30GVNEOCPI52
     CAP0281 KB2024 05 15.28045 16 06 35.882+11 11 14.50   ~5F7M 19.0 GVNEOCP734
     CAP0281 KB2024 05 15.28404 16 06 35.503+11 13 21.90   ~5F7M 19.1 GVNEOCP734
     CAP0281 KB2024 05 15.28753 16 06 35.172+11 15 26.60   ~5F7M 19.0 GVNEOCP734
     CAP0281 KC2024 05 15.41152 16 06 31.133+12 29 37.21   ~5FEM 20.0 GVNEOCPU52
     CAP0281 KC2024 05 15.41606 16 06 30.809+12 32 23.75   ~5FEM 19.3 GVNEOCPU52
     CAP0281 KC2024 05 15.42064 16 06 30.343+12 35 07.48   ~5FEM 19.3 GVNEOCPU52
     CAP0281 KC2024 05 15`Hf94[bScW(XwA%N*-'f+:5O]V@Sism7_`tHY7%pW7hereO_A\f-M38
     CAP0281 KC2024 05 15BZBq=C']PpVCbp]hj,!(eqRv.'[O=]_\%07],bn)JdglTMm68?hiM38
     CAP0281 KC2024 05 15Mo$#g`c?7=v((jHf:2S`A.WrMaIf#6l==/7.Lg6'I'O5uh\for]HK88
     CAP0281 KC2024 05 15jnA=n(=rHu.ol%$]3+JJ2N+;cW,bnTR=OoeXg]ZFO.K.F_9Jc%xnK88
     CAP0281 KC2024 05 15@tR]Viq`_7rtRBt(*F6P_)!H.yp(oD4q[i(K`h0Q`j82tFdm+mH-K88
     CAP0281 KC2024 05 15U!W8qLh]oJb08LaRgENh?Eh^lNQ:[aomyfI%/`OYI_LuF$8hI@ViK88
     CAP0281 KC2024 05 15eD'1rX%.su!La$,Jd[*3@V/@4!.^Ad'ac.r[@xC:sx@4L_g-iT'yK88
     CAP0281 KC2024 05 15=H30K`OR!8:sM[KqODoo3Lvrm];Geneg']wSwL_xLl5wcdv23/^cK88
     CAP0281 KC2024 05 16.04486116 06 39.377+19 09 00.83   ~5G1M 19.0 GVNEOCPJ95
     CAP0281 KC2024 05 16.04696016 06 39.226+19 10 22.76   ~5G1M 19.2 GVNEOCPJ95
     CAP0281 KC2024 05 16.04848716 06 39.096+19 11 22.70   ~5G1M 18.6 GVNEOCPJ95
     CAP0281 KC2024 05 16.04990716 06 38.959+19 12 19.08   ~5G1M 18.9 GVNEOCPJ95
     CAP0281 KC2024 05 16.05107816 06 38.892+19 13 04.76   ~5G1M 19.1 GVNEOCPJ95
     CAP0281 KC2024 05 16[+GvSfjr-KU^X-er+)LWua/8%+%8n=VOI#%iINvt]4-jy%P)Q-XlH21
     CAP0281 KC2024 05 16pqq!Pcom?DB#reL;G^P.NO3$2fk0\[8lD-_d,V`/(\)u]g%ko/XNH21
     CAP0281 KC2024 05 16APn2`*(explanationABt?*4]jjxyrX5USLB3qlBOtc%hP?LX:o-H21

Station data:
(033) Karl Schwarzschild Observatory, Tautenburg  (N50.980139 E11.711240)
   Germany.  Observer B. Stecklum. 1.34-m f/3 Schmidt + CCD.
(734) Farpoint Observatory, Eskridge  (N38.890239 W96.002420)  US/Kansas.
   Observer G. Hug. 0.69-m reflector + CCD.
(G03) Capricornus Observatory, Csokako  (N47.362995 E18.260610)  Hungary.
   Observer T. Maroti. 0.28-m f/2.2 reflector + CCD.
(H21) Astronomical Research Observatory, Westfield  (N39.483054 W87.968270)
   US/Illinois.  Observer R. Holmes. Measurers S. Foglia, L. Buzzi, T.
   Linder, R. Holmes. 0.76-m f/3.0 astrograph + CCD0.81-m f/4.0 astrograph +
   CCD0.61-m f/4.5 astrograph + CCD0.40-m f/5.32 astrograph + CCD.
(I52) Steward Observatory, Mt. Lemmon Station  (N32.442570 W110.788920)
   US/Arizona.  Observers T. A. Pruyne, B. M. Africano, E. J. Christensen, G.
   A. Farneth, D. C. Fuls, A. R. Gibbs, A. D. Grauer, H. Gröller, J. A.
   Johnson, R. A. Kowalski, S. M. Larson, G. J. Leonard, D. Rankin, R. L.
   Seaman, F. C. Shelly, K. W. Wierzchoś. 1.0-m prime focus + CCD.
(J95) Great Shefford  (N51.474969 W1.447003)  UK/England.  Observer P.
   Birtwhistle. 0.41-m f/6.3 Schmidt-Cassegrain + CCD.
(K88) GINOP-KHK, Piszkéstető  (N47.917453 E19.893670)  Hungary.  Observer K.
   Sárneczky. 0.60-m Schmidt + CCD.
(M38) Harsona Observatory, Nyiregyhaza  (N47.945815 E21.767190).  Observer T.
   Elek. 0.20-m f/4 reflector + CCD.
(U52) Shasta Valley Observatory, Grenada  (N41.579164 W122.549000)
   US/California.  Observer J. E. Rogers. Measurers J. E. Rogers, D. Parrott.
   0.30-m Helin Telescope + CCD.

Orbital elements:  CAP0281
   Perihelion 2024 Aug 9.32292 +/- 0.0273 TT =  7:45:00 (JD 2460531.82292)
Epoch 2024 May 16.0 TT = JDT 2460446.5   Earth MOID: 0.0260      AutoNEOCP
M 275.25314761 +/- 0.038            (J2000 ecliptic)
n   0.99324832 +/- 0.00013          Peri.  117.69128 +/- 0.010
a   0.99486500 +/- 8.68e-5          Node   230.35184 +/- 0.0008
e   0.2475729 +/- 0.000226          Incl.   10.88177 +/- 0.011
P   0.99/362.44d           H 25.88  G  0.15   U  6.7
q 0.74856330 +/- 0.00016    Q 1.24116669 +/- 0.000333
From 40 observations 2024 May 14-16 (30.4 hr); mean residual 0".48
Residuals in arcseconds: 
240514 G03  .38-  1.4-    240515 033  .34-  .08+    240515 K88  .39-  .50-    
240514 G03  .14-  .40-    240515 I52  .10+  .62-    240515 K88  .18+  .32+    
240514 G03  .27-  .07-    240515 I52  .39+  .16-    240515 K88  .02-  .56-    
240515 033  .05-  .07+    240515 I52  .62+  .30-    240515 K88  .20+  .19+    
240515 033  .13-  .08+    240515 734  .21+  .89+    240516 J95  .04-  .42+    
240515 033  .07-  .32+    240515 734  .35-  .19+    240516 J95  .22+  .17-    
240515 K88  .35-  .00     240515 734  .33-  .33+    240516 J95  .13+  .26-    
240515 K88  .16+  .43+    240515 U52  .38-  .30-    240516 J95  .19-  .29+    
240515 K88  .12+  .41+    240515 U52  .74+  1.6+    240516 J95  .20+  .07-    
240515 K88  .02-  .68+    240515 U52  .22-  .79-    240516 H21  .40-  .09+    
240515 K88  .14+  .34+    240515 M38  .47-  1.1-    240516 H21  .31-  .05-    
240515 K88  .58+  .94+    240515 M38  .16-  1.7-    240516 H21  .28-  .13+    
240515 033  .18+  .16+    240515 K88  .05-  .41+    
240515 033  .07+  .37+    240515 K88  .17+  .83+    

Ephemerides (geocentric):
Date (UTC) HH   RA             Dec           delta  r     elong  mag " sig PA
---- --------  ------------   ------------  ------ ------ -----  --- --------
2024 05 16 10  16 06 44.484   +23 19 58.14  .02664 1.0307 136.7 19.7 .162   7
2024 05 16 11  16 06 44.873   +23 48 16.55  .02659 1.0305 136.3 19.7 .163   7
2024 05 16 12  16 06 45.265   +24 16 40.38  .02655 1.0304 135.8 19.7 .164   7
2024 05 16 13  16 06 45.660   +24 45 09.41  .02651 1.0302 135.3 19.7 .165   8
2024 05 16 14  16 06 46.059   +25 13 43.43  .02647 1.0300 134.8 19.8 .166   8
2024 05 16 15  16 06 46.461   +25 42 22.22  .02643 1.0299 134.4 19.8 .167   9
2024 05 16 16  16 06 46.867   +26 11 05.56  .02640 1.0297 133.9 19.8 .168   9
2024 05 16 17  16 06 47.277   +26 39 53.24  .02636 1.0295 133.4 19.8 .169   9
2024 05 16 18  16 06 47.691   +27 08 45.02  .02633 1.0293 133.0 19.8 .171  10
2024 05 16 19  16 06 48.108   +27 37 40.68  .02630 1.0292 132.5 19.8 .172  10
2024 05 16 20  16 06 48.530   +28 06 39.98  .02628 1.0290 132.0 19.8 .174  11
2024 05 16 21  16 06 48.955   +28 35 42.68  .02625 1.0288 131.5 19.8 .175  11
2024 05 16 22  16 06 49.385   +29 04 48.55  .02623 1.0287 131.0 19.8 .177  11
2024 05 16 23  16 06 49.819   +29 33 57.35  .02620 1.0285 130.6 19.8 .179  12
2024 05 17 00  16 06 50.258   +30 03 08.83  .02618 1.0283 130.1 19.9 .181  12
2024 05 17 01  16 06 50.701   +30 32 22.75  .02616 1.0281 129.6 19.9 .183  12
2024 05 17 02  16 06 51.148   +31 01 38.86  .02615 1.0280 129.1 19.9 .186  13
2024 05 17 03  16 06 51.600   +31 30 56.90  .02613 1.0278 128.6 19.9 .188  13
2024 05 17 04  16 06 52.057   +32 00 16.63  .02612 1.0276 128.1 19.9 .190  13
2024 05 17 05  16 06 52.519   +32 29 37.79  .02611 1.0275 127.6 19.9 .193  14
2024 05 17 06  16 06 52.986   +32 59 00.13  .02610 1.0273 127.2 19.9 .195  14
2024 05 17 07  16 06 53.458   +33 28 23.39  .02609 1.0271 126.7 19.9 .198  14
2024 05 17 08  16 06 53.935   +33 57 47.32  .02609 1.0270 126.2 20.0 .201  14
2024 05 17 09  16 06 54.418   +34 27 11.67  .02609 1.0268 125.7 20.0 .204  15
2024 05 17 10  16 06 54.906   +34 56 36.16  .02609 1.0266 125.2 20.0 .207  15
2024 05 17 11  16 06 55.400   +35 26 00.56  .02609 1.0264 124.7 20.0 .210  15
2024 05 17 12  16 06 55.900   +35 55 24.59  .02609 1.0263 124.2 20.0 .213  15
2024 05 17 13  16 06 56.405   +36 24 48.01  .02609 1.0261 123.7 20.0 .217  16
2024 05 17 14  16 06 56.917   +36 54 10.55  .02610 1.0259 123.2 20.0 .220  16
2024 05 17 15  16 06 57.434   +37 23 31.97  .02611 1.0258 122.8 20.1 .224  16
2024 05 17 16  16 06 57.958   +37 52 52.01  .02612 1.0256 122.3 20.1 .228  16
2024 05 17 17  16 06 58.488   +38 22 10.41  .02613 1.0254 121.8 20.1 .231  16
2024 05 17 18  16 06 59.025   +38 51 26.93  .02614 1.0252 121.3 20.1 .235  17
2024 05 17 19  16 06 59.569   +39 20 41.31  .02616 1.0251 120.8 20.1 .239  17
2024 05 17 20  16 07 00.119   +39 49 53.31  .02618 1.0249 120.3 20.1 .243  17
2024 05 17 21  16 07 00.677   +40 19 02.68  .02620 1.0247 119.8 20.1 .247  17
2024 05 17 22  16 07 01.242   +40 48 09.18  .02622 1.0246 119.3 20.2 .252  17
2024 05 17 23  16 07 01.814   +41 17 12.57  .02624 1.0244 118.9 20.2 .256  17
2024 05 18 00  16 07 02.394   +41 46 12.60  .02627 1.0242 118.4 20.2 .261  17
2024 05 18 01  16 07 02.981   +42 15 09.05  .02629 1.0240 117.9 20.2 .265  18
2024 05 18 02  16 07 03.576   +42 44 01.68  .02632 1.0239 117.4 20.2 .270  18
2024 05 18 03  16 07 04.179   +43 12 50.26  .02635 1.0237 116.9 20.2 .275  18
2024 05 18 04  16 07 04.791   +43 41 34.57  .02639 1.0235 116.4 20.3 .279  18
2024 05 18 05  16 07 05.411   +44 10 14.38  .02642 1.0234 116.0 20.3 .284  18
2024 05 18 06  16 07 06.039   +44 38 49.48  .02646 1.0232 115.5 20.3 .289  18
2024 05 18 07  16 07 06.677   +45 07 19.65  .02650 1.0230 115.0 20.3 .294  18
2024 05 18 08  16 07 07.323   +45 35 44.68  .02654 1.0228 114.5 20.3 .300  18
2024 05 18 09  16 07 07.979   +46 04 04.36  .02658 1.0227 114.1 20.3 .305  18